Wind_Speed
52 51 51 51 48 46 49 50 52 51 50 50 50 49 50 50 50 49 51 48 44 41 38 35 35 35 33 32 33 34 33 32 30 31 30 29 30 32 31 29 27 25 25 23 23 22 21 20 17
50 51 51 51 50 51 53 55 55 55 55 52 50 50 50 51 51 50 49 49 44 42 39 34 33 34 32 28 28 32 34 34 31 30 30 32 30 33 35 32 30 29 28 27 26 26 26 24 23
55 56 56 56 56 57 57 58 59 60 61 60 59 56 53 52 51 49 50 50 49 44 41 38 36 36 34 32 28 26 30 34 33 32 29 31 34 32 36 37 34 32 32 31 30 31 29 28 28
60 60 58 56 58 61 62 62 63 61 59 60 60 59 58 57 55 53 52 51 50 49 46 44 42 41 39 35 32 30 28 31 33 33 31 30 32 33 33 39 40 38 37 35 33 34 33 32 31
60 60 60 61 64 65 66 66 65 66 66 67 66 64 62 61 61 60 56 54 53 50 50 48 48 46 44 41 38 35 31 29 31 35 34 31 30 32 36 36 42 43 41 41 38 38 37 36 35
59 61 61 63 66 67 68 69 69 70 71 71 70 71 71 70 67 64 60 58 57 54 51 50 50 50 49 47 45 41 37 34 31 34 37 35 36 35 35 39 40 44 45 45 43 42 40 39 40
61 62 62 63 64 66 68 68 68 69 71 73 73 72 71 72 71 69 65 62 60 57 54 52 52 50 51 50 49 46 43 39 38 36 38 41 39 40 39 37 41 43 48 48 48 47 45 45 45
50 51 52 56 58 60 63 65 65 67 69 69 69 67 68 70 70 70 68 66 64 64 63 61 56 52 51 52 52 51 46 44 42 42 40 42 45 43 43 42 39 43 46 51 50 49 46 46 47
48 51 53 56 58 60 63 65 66 67 68 69 70 69 69 69 69 69 69 68 67 67 66 65 63 59 57 57 55 53 54 50 48 46 45 44 47 48 47 46 45 44 44 48 50 50 51 48 48
52 55 58 61 62 64 66 67 68 70 71 71 74 74 72 71 69 68 67 67 66 66 65 66 64 63 61 61 59 57 56 54 52 51 48 49 48 48 49 48 48 50 48 47 49 50 50 50 53
58 61 63 65 68 71 72 75 76 78 77 81 83 80 77 75 73 71 69 67 67 65 64 63 64 65 63 63 63 62 61 60 57 56 56 53 52 51 50 51 51 50 52 51 50 51 52 51 48
65 67 68 71 77 79 81 82 84 87 87 91 90 88 85 83 80 77 75 73 71 70 68 65 61 61 61 62 63 62 63 63 63 61 59 59 58 55 54 52 52 51 53 52 53 55 54 53 52
65 68 71 72 69 68 64 67 70 73 69 71 77 79 83 86 86 86 84 81 78 76 72 70 65 63 61 60 60 60 61 62 62 63 64 63 63 62 59 58 56 55 54 53 53 56 57 57 57
55 51 54 57 60 61 61 68 57 55 51 56 65 74 80 81 84 85 88 88 85 82 77 72 70 67 64 62 61 61 61 60 60 62 64 65 64 64 66 64 62 60 58 57 56 55 57 57 58
32 34 41 43 47 57 57 62 45 47 46 53 58 62 69 73 81 82 85 89 92 87 81 78 73 69 67 64 63 64 63 60 60 59 60 63 67 68 66 67 65 65 65 63 59 55 55 56 56
17 19 23 29 34 48 58 69 59 51 51 56 54 55 61 67 67 74 83 83 87 91 88 81 78 73 69 67 65 63 64 63 64 62 60 59 62 69 72 73 73 71 70 69 67 65 62 60 58
12 18 23 35 42 52 48 54 60 55 49 51 52 56 61 66 68 67 73 79 81 83 88 86 81 78 73 71 69 67 65 65 65 64 64 65 64 64 65 69 73 76 74 75 73 71 68 66 64
28 28 24 26 32 35 36 36 34 39 46 49 50 51 52 57 63 67 66 66 71 77 80 82 82 80 77 75 72 71 68 67 67 67 68 68 69 69 69 68 69 73 71 75 75 75 73 72 71
39 42 41 41 40 41 41 43 40 40 43 46 38 38 38 38 44 54 62 64 62 66 70 73 77 81 79 78 75 74 73 71 71 71 71 72 72 72 72 71 71 72 72 73 77 77 78 77 77
41 45 50 45 49 50 48 46 47 46 37 40 30 26 18 17 26 41 54 59 61 58 59 68 75 78 79 77 78 78 77 77 77 76 76 76 76 77 75 75 74 74 73 74 76 77 77 79 82
41 47 49 52 56 57 57 52 47 48 42 34 26 16 10 5 12 24 33 43 51 54 54 61 70 77 80 81 81 80 78 78 79 80 79 79 79 79 78 78 77 77 77 76 77 77 77 78 79
42 44 48 53 58 59 60 60 53 46 45 42 33 20 11 5 3 14 22 29 40 48 50 54 57 65 74 78 81 81 82 82 82 84 84 84 86 84 81 80 79 79 81 79 80 81 82 80 79
42 44 47 51 55 57 61 63 62 55 48 44 42 37 24 11 5 4 13 23 31 38 43 46 49 59 67 73 78 81 82 83 84 85 85 85 85 85 83 84 84 82 81 82 83 84 83 81 81
39 43 46 49 52 55 58 63 64 64 58 53 46 45 38 32 19 6 2 10 17 27 35 39 41 48 58 65 69 77 81 82 83 84 86 86 87 85 84 83 83 81 81 81 81 83 82 80 79
38 38 42 45 46 52 57 60 64 64 63 62 57 51 47 42 35 28 22 8 5 11 16 26 32 36 43 52 59 66 70 76 81 83 83 85 87 87 87 83 82 82 82 83 84 84 83 83 82
37 40 39 42 47 47 53 57 60 63 64 63 61 58 59 51 47 39 31 29 22 12 8 15 19 28 35 40 46 52 55 59 64 68 71 72 70 71 74 75 77 78 77 75 77 80 82 82 82
34 36 41 39 40 48 45 51 56 57 60 60 61 62 61 59 58 56 50 46 37 30 23 13 11 15 21 27 34 40 44 48 52 56 58 59 60 61 61 63 63 64 65 67 68 70 73 76 78
37 36 35 40 39 37 46 45 48 53 56 58 57 58 61 59 60 58 54 49 46 44 32 25 18 13 14 21 26 30 35 39 43 47 50 50 52 52 53 55 56 57 58 58 60 63 66 69 71
40 41 40 39 45 44 40 44 44 45 51 52 54 57 57 58 59 56 54 52 51 46 44 44 36 26 19 18 19 23 29 34 39 43 46 47 48 48 49 50 51 51 51 50 52 57 61 64 68
43 45 43 43 45 47 50 47 38 46 45 48 48 51 55 59 63 59 55 54 49 49 47 45 42 42 32 25 23 24 23 26 32 35 38 40 43 45 47 47 46 45 45 46 49 51 52 54 59
Wind_Direction
254 255 257 259 261 264 266 266 268 269 271 270 270 268 268 267 268 271 271 271 272 271 270 267 264 264 263 261 263 264 265 263 262 265 262 256 256 250 249 247 246 239 239 246 233 237 245 254 259
253 255 258 260 263 262 263 267 269 270 271 271 270 268 268 269 268 268 270 272 271 269 266 262 261 259 260 260 260 260 262 262 261 257 261 263 260 251 249 246 244 240 235 239 234 238 243 250 258
253 256 259 261 263 263 264 267 271 273 272 271 270 268 267 266 267 267 267 268 271 268 266 263 262 259 259 259 259 260 260 260 259 259 257 258 259 255 248 246 244 244 236 235 238 244 250 255 255
254 257 259 261 262 264 266 269 272 273 272 272 273 272 269 266 265 264 264 263 264 265 262 264 264 262 261 261 261 259 258 260 260 260 260 258 257 254 251 245 242 241 241 239 237 242 249 257 259
255 258 260 261 261 264 266 268 269 270 271 271 271 271 270 269 268 265 264 262 262 262 261 261 261 260 260 261 260 259 258 257 259 260 259 258 256 255 252 247 242 241 241 244 244 243 247 253 259
259 262 263 264 266 266 268 269 269 269 269 270 270 270 269 267 267 264 262 260 261 261 257 260 259 258 257 256 258 258 256 255 251 257 254 251 253 254 256 251 246 243 244 244 247 248 249 254 258
261 263 266 267 268 269 270 270 271 271 271 271 270 268 266 265 265 262 260 258 257 257 256 257 258 255 256 253 253 255 255 253 250 246 251 251 247 251 250 253 247 247 244 246 249 250 252 254 257
264 266 267 269 268 267 269 269 269 269 269 269 269 269 266 265 263 261 260 258 256 257 257 256 254 254 255 253 252 250 249 252 251 248 245 248 252 247 249 251 250 249 247 246 248 252 253 256 258
264 265 264 263 263 265 266 267 268 270 271 272 272 268 266 265 266 264 262 261 259 258 259 257 252 253 252 252 253 252 248 248 249 250 247 245 248 252 251 247 248 249 250 250 252 253 252 252 255
265 266 266 266 267 269 271 271 272 271 270 270 268 267 266 264 264 264 266 267 264 262 260 258 256 254 251 250 251 252 253 248 247 245 247 247 245 246 249 250 249 248 248 248 252 256 256 256 256
269 270 270 271 275 275 273 273 272 271 271 269 269 265 263 262 261 260 260 262 263 263 264 263 259 257 255 252 251 253 250 251 250 248 244 244 247 246 247 247 250 252 251 249 250 252 256 260 258
279 281 283 282 280 278 277 275 274 273 268 268 265 263 260 258 258 257 258 258 256 257 259 260 259 257 255 252 250 250 250 251 251 250 247 243 242 245 245 245 247 249 250 250 251 252 255 254 256
288 286 286 286 285 282 281 277 273 271 271 270 268 266 264 261 256 254 253 254 253 252 253 255 256 256 256 256 254 253 252 251 253 250 249 245 241 242 243 246 246 247 250 249 249 251 254 255 255
288 290 287 286 286 284 283 279 278 278 278 274 268 264 258 252 251 252 253 252 251 250 249 249 251 253 254 254 256 256 254 253 253 252 251 245 243 244 241 243 246 248 247 250 251 252 253 256 257
308 308 308 311 311 301 293 291 302 306 302 292 282 269 260 255 253 247 246 248 250 247 247 245 246 248 250 252 253 255 257 257 255 253 251 250 246 244 243 246 243 247 249 250 251 250 253 256 256
359 341 311 306 319 304 302 305 313 307 296 290 283 268 257 253 251 247 245 244 243 244 244 242 243 243 245 247 249 251 254 256 258 258 256 253 251 249 247 248 248 247 245 247 250 250 251 253 255
342 350 337 296 301 303 305 302 305 304 300 298 288 273 262 251 244 241 242 240 240 243 243 241 239 240 241 244 245 247 251 253 254 256 257 258 257 254 251 250 250 250 248 248 248 248 250 251 252
31 25 1 337 327 329 320 312 310 304 300 297 291 279 268 258 246 241 238 239 238 239 241 242 238 238 239 241 243 244 248 250 252 253 254 254 256 256 256 255 253 252 252 251 247 245 248 250 252
32 31 28 22 13 5 358 348 338 327 317 312 301 288 273 258 245 235 234 235 237 238 239 242 241 236 237 238 241 243 245 247 249 250 252 254 254 253 255 256 255 255 252 251 249 249 252 251 249
30 28 26 29 27 24 19 8 355 347 344 330 320 306 287 246 232 227 226 229 234 236 238 238 239 238 236 237 240 241 243 246 248 249 251 252 255 256 257 257 257 258 257 255 253 253 252 250 249
29 27 28 26 26 26 26 25 14 0 358 0 347 334 329 296 233 221 225 229 234 235 233 235 235 235 235 236 237 240 243 244 247 250 252 254 254 255 256 257 258 258 258 258 257 256 255 252 250
24 26 25 24 23 24 26 27 27 20 13 15 21 14 11 36 216 222 212 221 231 233 233 236 236 239 239 238 239 239 242 244 246 249 250 252 254 254 255 256 257 258 260 259 258 257 257 255 254
19 20 23 21 19 20 23 24 26 27 25 26 30 34 34 28 61 192 226 236 235 235 234 235 234 237 239 239 239 239 241 244 247 251 254 256 257 259 261 261 262 262 262 262 261 260 260 259 257
14 14 14 19 15 16 20 20 22 25 28 29 30 38 42 44 47 54 207 233 245 248 241 236 234 240 243 243 244 243 244 245 249 251 255 258 260 263 265 265 264 261 262 262 261 261 260 257 256
4 9 8 8 14 12 13 15 17 20 23 25 27 30 37 42 45 46 44 31 258 239 242 243 239 238 244 249 252 252 252 251 253 257 261 264 265 266 266 266 266 264 262 262 263 261 259 258 257
345 351 3 4 6 12 9 9 14 16 18 21 24 25 28 31 35 40 43 44 39 24 321 255 248 247 240 242 247 249 251 254 255 255 258 262 263 263 264 263 261 260 262 262 259 258 258 257 255
336 341 344 355 358 358 5 5 7 11 14 16 18 18 19 21 23 28 30 30 31 26 19 5 297 257 247 249 252 254 256 258 259 260 261 260 260 260 261 261 261 261 260 259 259 258 257 256 254
331 341 339 340 353 359 358 358 2 1 5 9 10 11 13 14 14 16 18 22 26 24 18 11 3 347 299 275 262 254 253 255 256 256 256 257 256 257 258 259 259 259 259 258 257 256 255 254 254
329 331 337 338 338 346 353 357 351 355 357 0 1 3 5 5 5 6 8 11 12 13 15 15 5 348 331 317 306 292 279 266 260 262 262 260 260 260 259 261 261 260 262 262 259 257 255 254 254
326 327 330 333 331 333 335 344 352 346 350 350 354 354 354 355 356 358 359 0 5 5 3 5 4 1 341 324 307 295 297 297 286 276 270 268 265 266 265 264 265 267 266 264 262 260 260 260 257
Height
10836 10839 10842 10844 10847 10848 10846 10846 10844 10848 10851 10853 10854 10856 10857 10859 10860 10864 10861 10864 10865 10865 10865 10864 10864 10864 10865 10866 10866 10867 10868 10869 10872 10874 10875 10877 10879 10881 10882 10884 10885 10886 10888 10888 10889 10889 10890 10890 10890
10830 10833 10836 10838 10840 10840 10838 10837 10838 10840 10841 10844 10846 10848 10850 10852 10852 10853 10854 10854 10857 10858 10858 10859 10859 10859 10859 10859 10860 10861 10861 10863 10865 10867 10869 10871 10873 10875 10877 10878 10880 10881 10882 10884 10884 10885 10885 10886 10887
10824 10827 10829 10831 10832 10831 10831 10830 10831 10832 10832 10834 10836 10838 10842 10843 10843 10846 10845 10846 10847 10850 10851 10851 10852 10854 10855 10854 10854 10855 10856 10856 10858 10859 10862 10864 10866 10868 10870 10872 10874 10876 10877 10879 10880 10880 10881 10882 10882
10818 10821 10822 10825 10823 10821 10821 10823 10822 10822 10822 10822 10823 10827 10829 10830 10833 10835 10837 10838 10839 10841 10843 10845 10846 10846 10848 10850 10849 10849 10850 10851 10851 10853 10855 10857 10859 10860 10863 10865 10868 10869 10871 10873 10875 10876 10876 10877 10878
10810 10812 10814 10813 10811 10811 10810 10812 10812 10810 10810 10810 10811 10813 10815 10816 10820 10823 10826 10828 10830 10833 10834 10836 10838 10839 10840 10841 10843 10844 10845 10846 10847 10848 10848 10851 10852 10853 10854 10857 10859 10862 10864 10866 10869 10870 10871 10872 10873
10803 10804 10805 10804 10801 10799 10799 10799 10798 10798 10797 10795 10797 10797 10799 10799 10803 10807 10811 10814 10817 10821 10824 10825 10828 10829 10831 10832 10832 10835 10838 10840 10842 10842 10844 10845 10845 10847 10848 10849 10852 10854 10856 10858 10861 10862 10865 10866 10866
10794 10795 10796 10794 10790 10788 10787 10785 10784 10784 10783 10783 10781 10782 10782 10782 10784 10789 10794 10799 10802 10805 10809 10813 10816 10819 10821 10823 10824 10826 10828 10831 10833 10836 10837 10837 10838 10839 10840 10842 10845 10846 10848 10850 10853 10855 10857 10859 10859
10786 10787 10786 10784 10781 10778 10774 10772 10771 10770 10768 10767 10766 10768 10766 10766 10768 10770 10776 10781 10786 10789 10793 10797 10802 10806 10808 10811 10814 10817 10819 10821 10824 10827 10829 10830 10830 10831 10833 10834 10837 10839 10840 10842 10843 10846 10849 10851 10852
10777 10777 10775 10773 10769 10767 10764 10760 10759 10757 10756 10754 10752 10751 10751 10752 10753 10755 10759 10764 10769 10773 10776 10781 10787 10792 10795 10798 10801 10805 10809 10812 10815 10817 10820 10822 10822 10823 10825 10826 10828 10830 10833 10834 10835 10837 10839 10842 10845
10768 10767 10765 10761 10759 10756 10753 10749 10746 10743 10740 10737 10733 10733 10736 10738 10739 10741 10743 10747 10750 10755 10760 10765 10772 10777 10781 10784 10788 10792 10796 10800 10804 10807 10809 10812 10813 10814 10816 10818 10819 10821 10824 10826 10827 10828 10829 10832 10836
10759 10757 10753 10749 10747 10743 10738 10732 10729 10722 10722 10713 10712 10714 10719 10721 10724 10725 10728 10731 10734 10740 10744 10749 10754 10760 10766 10770 10774 10779 10783 10786 10791 10796 10799 10801 10802 10805 10806 10809 10811 10812 10814 10815 10817 10818 10820 10822 10825
10750 10746 10742 10736 10729 10722 10717 10713 10706 10699 10696 10685 10686 10690 10696 10701 10704 10708 10710 10714 10719 10723 10727 10733 10738 10743 10748 10754 10759 10764 10768 10771 10776 10780 10786 10790 10792 10793 10796 10798 10800 10802 10803 10805 10807 10808 10809 10812 10814
10738 10732 10726 10717 10709 10700 10695 10685 10679 10669 10674 10672 10666 10668 10671 10675 10681 10683 10688 10693 10698 10704 10711 10717 10723 10729 10733 10738 10744 10749 10753 10757 10761 10764 10769 10775 10779 10782 10784 10786 10790 10791 10793 10795 10796 10797 10798 10801 10804
10724 10718 10710 10703 10695 10687 10681 10665 10663 10658 10658 10651 10644 10640 10639 10641 10648 10657 10667 10671 10677 10684 10692 10701 10709 10714 10720 10725 10729 10733 10737 10742 10746 10749 10753 10758 10764 10767 10772 10774 10777 10779 10781 10782 10785 10787 10788 10788 10790
10716 10708 10699 10691 10680 10669 10661 10643 10644 10643 10638 10628 10620 10618 10618 10620 10622 10630 10637 10647 10655 10663 10675 10683 10691 10699 10705 10711 10716 10719 10723 10727 10731 10735 10739 10743 10747 10752 10756 10759 10764 10766 10767 10771 10774 10776 10777 10778 10778
10712 10702 10693 10686 10676 10661 10649 10633 10625 10624 10618 10605 10599 10593 10592 10596 10601 10609 10610 10620 10628 10638 10650 10663 10674 10683 10691 10698 10702 10706 10709 10713 10716 10720 10724 10728 10732 10736 10741 10745 10747 10750 10753 10756 10760 10762 10765 10766 10767
10709 10700 10688 10676 10666 10652 10646 10633 10619 10608 10597 10585 10575 10569 10566 10569 10576 10584 10590 10598 10607 10618 10629 10643 10654 10665 10676 10681 10686 10691 10695 10698 10702 10705 10709 10711 10716 10719 10724 10727 10730 10732 10737 10741 10745 10748 10750 10753 10754
10706 10697 10686 10676 10662 10646 10632 10621 10611 10598 10586 10572 10558 10548 10544 10544 10552 10564 10574 10585 10592 10599 10610 10625 10638 10649 10658 10665 10671 10676 10680 10684 10687 10689 10692 10695 10699 10703 10707 10711 10714 10716 10722 10726 10729 10733 10735 10739 10740
10702 10692 10682 10669 10656 10642 10627 10615 10602 10588 10573 10558 10545 10533 10529 10529 10535 10547 10558 10570 10578 10587 10598 10611 10621 10631 10641 10648 10656 10660 10663 10667 10670 10672 10676 10679 10683 10686 10690 10694 10696 10699 10705 10707 10711 10715 10719 10723 10724
10700 10689 10678 10668 10655 10637 10625 10612 10599 10584 10569 10549 10536 10526 10521 10520 10524 10531 10541 10553 10566 10576 10585 10593 10602 10614 10626 10632 10638 10642 10648 10651 10654 10657 10660 10664 10667 10670 10675 10679 10681 10683 10687 10689 10693 10697 10701 10703 10705
10697 10687 10677 10666 10652 10639 10627 10614 10599 10583 10567 10551 10535 10526 10520 10518 10521 10527 10539 10550 10560 10566 10571 10576 10585 10595 10604 10613 10619 10625 10632 10635 10639 10643 10646 10648 10651 10654 10658 10661 10664 10666 10668 10672 10674 10677 10680 10683 10686
10692 10684 10674 10664 10653 10641 10629 10616 10604 10589 10572 10554 10541 10532 10527 10523 10524 10530 10535 10543 10553 10558 10561 10568 10576 10585 10593 10600 10606 10612 10615 10618 10621 10625 10628 10630 10632 10634 10639 10642 10646 10648 10650 10653 10654 10656 10659 10663 10668
10689 10680 10671 10661 10651 10644 10632 10619 10605 10591 10577 10564 10552 10541 10534 10532 10531 10532 10538 10544 10548 10551 10554 10560 10565 10572 10580 10586 10592 10597 10601 10605 10607 10609 10612 10614 10617 10620 10624 10627 10628 10632 10633 10634 10635 10637 10641 10645 10647
10686 10677 10669 10659 10652 10644 10633 10622 10612 10598 10585 10573 10561 10551 10544 10540 10537 10537 10537 10539 10543 10548 10550 10553 10556 10563 10570 10576 10581 10585 10588 10592 10593 10595 10596 10597 10598 10601 10604 10607 10609 10611 10612 10612 10613 10615 10618 10624 10629
10683 10677 10668 10661 10653 10642 10632 10623 10612 10601 10591 10581 10571 10562 10554 10548 10544 10541 10541 10541 10541 10543 10546 10549 10551 10555 10561 10567 10572 10575 10577 10579 10581 10583 10584 10582 10582 10583 10584 10587 10588 10588 10587 10590 10593 10595 10597 10600 10606
10681 10673 10666 10658 10650 10642 10631 10625 10616 10605 10596 10587 10579 10570 10563 10557 10551 10548 10546 10544 10543 10543 10544 10546 10547 10549 10551 10555 10558 10561 10564 10567 10567 10566 10566 10565 10564 10564 10562 10564 10563 10564 10566 10569 10570 10572 10574 10577 10583
10677 10671 10662 10656 10645 10636 10633 10625 10616 10609 10601 10593 10585 10578 10572 10565 10560 10554 10550 10547 10545 10545 10544 10544 10545 10545 10545 10546 10548 10549 10551 10551 10552 10550 10549 10548 10546 10544 10544 10544 10545 10546 10547 10547 10549 10551 10553 10556 10559
10671 10666 10660 10651 10646 10640 10628 10623 10616 10609 10602 10595 10589 10583 10578 10573 10567 10562 10558 10554 10549 10547 10546 10545 10543 10542 10542 10541 10540 10537 10536 10537 10537 10535 10534 10532 10531 10530 10530 10529 10529 10528 10528 10530 10532 10532 10533 10536 10538
10665 10660 10654 10647 10637 10633 10629 10621 10613 10609 10602 10595 10587 10582 10578 10574 10570 10566 10560 10555 10551 10548 10544 10541 10540 10539 10538 10537 10535 10533 10531 10528 10525 10523 10523 10521 10519 10518 10518 10516 10515 10516 10517 10517 10518 10517 10518 10520 10522
10657 10651 10647 10641 10636 10627 10621 10620 10613 10604 10600 10594 10588 10581 10575 10570 10567 10563 10559 10555 10552 10549 10545 10542 10539 10537 10535 10532 10529 10526 10523 10520 10517 10513 10509 10508 10507 10506 10504 10503 10502 10502 10503 10504 10503 10504 10505 10506 10506